Simultaneous Nadir Overpasses (SNOs) Predictions

Prediction of SNOs between LANDSAT-8 and METOP-A Satellite Orbit:

Table of predicted SNOs for the next 14.0 days since TLE Epoch: 12/26/2015
Index Date (LANDSAT-8) Time (LANDSAT-8) Lat,Lon (LANDSAT-8) SZA (LANDSAT-8 ) Date (METOP-A) Time (METOP-A) Lat,Lon (METOP-A) SZA (METOP-A ) Distance(km) Time Diff (sec)
1 12/28/2015 18:20:28 -81.12, 124.75 73.73 12/28/2015 18:19:58 -81.12, 124.91 73.73 2.81 30
2 12/28/2015 19:09:54 81.13, -67.51 106.29 12/28/2015 19:10:38 81.13, -67.54 106.30 0.53 44
3 12/31/2015 13:54:43 -81.11,-169.02 73.97 12/31/2015 13:54:22 -81.12,-168.87 73.96 2.62 21
4 12/31/2015 14:44:08 81.14, -0.94 106.10 12/31/2015 14:45:01 81.14, -0.95 106.12 0.30 53
5 01/03/2016 09:28:57 -81.12,-102.51 74.22 01/03/2016 09:28:45 -81.12,-102.32 74.21 3.23 12
6 01/03/2016 10:18:22 81.14, 65.54 105.84 01/03/2016 10:19:24 81.14, 65.60 105.87 1.03 62
7 01/06/2016 05:03:10 -81.11, -36.09 74.55 01/06/2016 05:03:08 -81.11, -36.21 74.56 1.98 2
8 01/06/2016 05:52:35 81.14, 131.93 105.50 01/06/2016 05:53:46 81.14, 132.10 105.55 2.91 71
9 01/08/2016 23:47:57 81.11,-137.42 105.06 01/08/2016 23:46:51 81.10,-137.47 105.02 1.01 66




NCC Satellite Simultaneous Nadir Overpasses (SNOs) Prediction Service
